Flag for U.S.A. Weather past 2 weeks in Chicago, Illinois, U.S.A.

Now
61 °F

Passing clouds.


Feels Like: 61 °F
Forecast: 60 / 75 °F
Wind: No wind

Location: Chicago Midway Airport

Current Time: May 28, 2015 at 5:23:52 AM

Latest Report: May 28, 2015 at 4:53 AM


Visibility: 10 mi

Pressure: 30.14 "Hg

Humidity: 81%

Dew point: 55 °F

Location of ChicagoLocation

Historic Weather in Chicago — Graph

°F

Chicago temperature yesterday

Maximum temperature yesterday: 75 °F (at 6:53 PM)
Minimum temperature yesterday: 64 °F (at 11:53 PM)
Average temperature yesterday: 70 °F

Past Weeks' High & Low Weather Summary

 TemperatureHumidityPressure
High84 °F (May 17, 5:53 PM)90% (May 17, 7:53 AM)30.53 "Hg (May 17, 7:53 AM)
Low44 °F (May 19, 9:53 PM)21% (May 23, 4:53 PM)29.74 "Hg (May 26, 3:53 PM)
Average64 °F62%30.07 "Hg
* Reported May 13 3:53 AM — May 28 3:53 AM, Chicago, Weather by CustomWeather, © 2015

Note: Actual official high and low records may vary slightly from our data, if they occured in-between our weather recording intervals... More about our weather records

Advertising

Chicago weather history for previous 24 hours

 ConditionsComfort  
Time TempWeatherWind HumidityBarometerVisibility
3:53 AM
Thu, May 28
62 °FClear.No wind80%30.14 "Hg10 mi
2:53 AM63 °FPassing clouds.3 mph78%30.14 "Hg10 mi
1:53 AM63 °FPassing clouds.No wind78%30.14 "Hg10 mi
12:53 AM64 °FClear.No wind75%30.13 "Hg10 mi
11:53 PM
Wed, May 27
64 °FClear.3 mph73%30.11 "Hg10 mi
10:53 PM65 °FClear.7 mph70%30.10 "Hg10 mi
9:53 PM68 °FClear.5 mph63%30.09 "Hg10 mi
8:53 PM72 °FSunny.No wind53%30.06 "Hg10 mi
7:53 PM73 °FPassing clouds.6 mph51%30.03 "Hg10 mi
6:53 PM75 °FPassing clouds.8 mph48%30.02 "Hg10 mi
5:53 PM74 °FPassing clouds.10 mph56%30.01 "Hg10 mi
4:53 PM73 °FBroken clouds.12 mph55%30.00 "Hg10 mi
3:53 PM73 °FBroken clouds.14 mph53%29.99 "Hg10 mi
2:53 PM74 °FBroken clouds.13 mph56%29.98 "Hg10 mi
1:53 PM74 °FPartly sunny.16 mph64%29.96 "Hg10 mi
12:53 PM67 °FLight rain. Mostly cloudy.13 mph81%29.97 "Hg6 mi
11:53 AM73 °FBroken clouds.16 mph59%29.95 "Hg10 mi
10:53 AM73 °FPartly sunny.22 mph59%29.93 "Hg10 mi
9:53 AM73 °FBroken clouds.17 mph64%29.93 "Hg10 mi
8:53 AM71 °FPartly sunny.17 mph71%29.92 "Hg10 mi
7:53 AM69 °FPartly sunny.21 mph79%29.92 "Hg10 mi
6:53 AM68 °FScattered clouds.14 mph82%29.90 "Hg10 mi
5:53 AM67 °FPassing clouds.12 mph85%29.88 "Hg10 mi
Weather by CustomWeather, © 2015

See weather overviewHow to use our weather pages